| time (UTC) | temp F | wind direction | speed MPH | gust MPH | rain 1hr in | rain 24hr in | rain mn in | humidity % | barometer mb |
| 20260505001704 | 68 | 292 | 5.0 | 12.0 | 0.00 | 0.00 | 0.00 | 48 | 1014.1 |
| 20260505001159 | 68 | 334 | 6.0 | 12.0 | 0.00 | 0.00 | 0.00 | 47 | 1013.8 |
| 20260505000657 | 69 | 30 | 6.0 | 14.0 | 0.00 | 0.00 | 0.00 | 44 | 1013.7 |
| 20260505000156 | 70 | 353 | 6.0 | 14.0 | 0.00 | 0.00 | 0.00 | 39 | 1013.7 |
| 20260504235655 | 71 | 342 | 4.0 | 14.0 | 0.00 | 0.00 | 0.00 | 35 | 1013.6 |
| 20260504235154 | 72 | 250 | 5.0 | 13.0 | 0.00 | 0.00 | 0.00 | 32 | 1013.4 |
| 20260504234649 | 73 | 324 | 6.0 | 12.0 | 0.00 | 0.00 | 0.00 | 30 | 1013.4 |
| 20260504234146 | 73 | 292 | 6.0 | 14.0 | 0.00 | 0.00 | 0.00 | 30 | 1013.4 |
| 20260504233647 | 73 | 279 | 8.0 | 14.0 | 0.00 | 0.00 | 0.00 | 29 | 1013.4 |
| 20260504233145 | 74 | 291 | 9.0 | 20.0 | 0.00 | 0.00 | 0.00 | 28 | 1013.6 |
| 20260504232646 | 74 | 286 | 10.0 | 20.0 | 0.00 | 0.00 | 0.00 | 28 | 1013.6 |
| 20260504232146 | 75 | 274 | 10.0 | 18.0 | 0.00 | 0.00 | 0.00 | 26 | 1013.7 |
| 20260504231645 | 76 | 287 | 9.0 | 18.0 | 0.00 | 0.00 | 0.00 | 24 | 1013.7 |
| 20260504231146 | 76 | 276 | 10.0 | 18.0 | 0.00 | 0.00 | 0.00 | 25 | 1013.6 |
| 20260504230645 | 76 | 273 | 10.0 | 18.0 | 0.00 | 0.00 | 0.00 | 25 | 1013.3 |
| 20260504230143 | 77 | 257 | 9.0 | 18.0 | 0.00 | 0.00 | 0.00 | 24 | 1013.2 |
| 20260504225643 | 78 | 290 | 7.0 | 16.0 | 0.00 | 0.00 | 0.00 | 21 | 1012.9 |
| 20260504225146 | 78 | 269 | 5.0 | 16.0 | 0.00 | 0.00 | 0.00 | 20 | 1012.8 |
| 20260504224647 | 78 | 285 | 6.0 | 13.0 | 0.00 | 0.00 | 0.00 | 20 | 1012.7 |
| 20260504224147 | 78 | 247 | 6.0 | 18.0 | 0.00 | 0.00 | 0.00 | 20 | 1012.8 |
| 20260504223646 | 78 | 356 | 6.0 | 18.0 | 0.00 | 0.00 | 0.00 | 20 | 1012.9 |
| 20260504223141 | 79 | 263 | 6.0 | 13.0 | 0.00 | 0.00 | 0.00 | 20 | 1012.9 |
| 20260504222635 | 79 | 291 | 6.0 | 15.0 | 0.00 | 0.00 | 0.00 | 19 | 1012.9 |
| 20260504222125 | 79 | 282 | 7.0 | 15.0 | 0.00 | 0.00 | 0.00 | 19 | 1012.8 |
| 20260504221619 | 79 | 273 | 7.0 | 14.0 | 0.00 | 0.00 | 0.00 | 19 | 1013.2 |
| 20260504221113 | 80 | 274 | 6.0 | 13.0 | 0.00 | 0.00 | 0.00 | 19 | 1013.1 |
| 20260504220604 | 80 | 283 | 5.0 | 14.0 | 0.00 | 0.00 | 0.00 | 19 | 1013.1 |
| 20260504220054 | 80 | 252 | 6.0 | 14.0 | 0.00 | 0.00 | 0.00 | 19 | 1013.2 |
| 20260504215549 | 81 | 278 | 5.0 | 13.0 | 0.00 | 0.00 | 0.00 | 19 | 1013.2 |
| 20260504215038 | 81 | 339 | 6.0 | 15.0 | 0.00 | 0.00 | 0.00 | 18 | 1013.2 |
| 20260504214532 | 81 | 285 | 7.0 | 15.0 | 0.00 | 0.00 | 0.00 | 18 | 1012.9 |
| 20260504214025 | 82 | 285 | 7.0 | 14.0 | 0.00 | 0.00 | 0.00 | 17 | 1012.8 |
| 20260504213513 | 81 | 259 | 6.0 | 12.0 | 0.00 | 0.00 | 0.00 | 18 | 1012.8 |
| 20260504213009 | 81 | 221 | 7.0 | 15.0 | 0.00 | 0.00 | 0.00 | 17 | 1012.8 |
| 20260504212720 | 81 | 240 | 7.0 | 13.0 | 0.00 | 0.00 | 0.00 | 17 | 1012.8 |
| 20260504212216 | 82 | 297 | 5.0 | 13.0 | 0.00 | 0.00 | 0.00 | 17 | 1012.9 |
| 20260504211446 | 82 | 283 | 5.0 | 9.0 | 0.00 | 0.00 | 0.00 | 17 | 1012.8 |
| 20260504210941 | 82 | 281 | 3.0 | 7.0 | 0.00 | 0.00 | 0.00 | 16 | 1012.9 |
| 20260504210431 | 82 | 263 | 3.0 | 6.0 | 0.00 | 0.00 | 0.00 | 17 | 1013.2 |
| 20260504205924 | 82 | 287 | 3.0 | 6.0 | 0.00 | 0.00 | 0.00 | 16 | 1013.3 |
| 20260504205419 | 82 | 260 | 2.0 | 5.0 | 0.00 | 0.00 | 0.00 | 17 | 1013.3 |
| 20260504205135 | 82 | 221 | 3.0 | 9.0 | 0.00 | 0.00 | 0.00 | 17 | 1013.2 |
| 20260504204401 | 82 | 117 | 3.0 | 9.0 | 0.00 | 0.00 | 0.00 | 17 | 1013.3 |
| 20260504203857 | 82 | 240 | 4.0 | 9.0 | 0.00 | 0.00 | 0.00 | 18 | 1013.3 |
| 20260504203347 | 82 | 213 | 4.0 | 9.0 | 0.00 | 0.00 | 0.00 | 17 | 1013.4 |
| 20260504202841 | 82 | 217 | 3.0 | 7.0 | 0.00 | 0.00 | 0.00 | 18 | 1013.4 |
| 20260504202335 | 81 | 225 | 3.0 | 9.0 | 0.00 | 0.00 | 0.00 | 18 | 1013.5 |
| 20260504201824 | 82 | 249 | 3.0 | 9.0 | 0.00 | 0.00 | 0.00 | 18 | 1013.5 |
| 20260504201319 | 82 | 266 | 3.0 | 9.0 | 0.00 | 0.00 | 0.00 | 18 | 1013.6 |
| 20260504200813 | 82 | 251 | 3.0 | 9.0 | 0.00 | 0.00 | 0.00 | 19 | 1013.6 |
| 20260504200303 | 81 | 330 | 2.0 | 7.0 | 0.00 | 0.00 | 0.00 | 19 | 1013.6 |
| 20260504195801 | 81 | 290 | 2.0 | 6.0 | 0.00 | 0.00 | 0.00 | 19 | 1013.5 |
| 20260504195259 | 81 | 276 | 4.0 | 8.0 | 0.00 | 0.00 | 0.00 | 19 | 1013.4 |
| 20260504194801 | 80 | 281 | 4.0 | 10.0 | 0.00 | 0.00 | 0.00 | 19 | 1013.4 |
| 20260504194257 | 80 | 215 | 4.0 | 10.0 | 0.00 | 0.00 | 0.00 | 19 | 1013.4 |
| 20260504193756 | 80 | 337 | 3.0 | 13.0 | 0.00 | 0.00 | 0.00 | 20 | 1013.4 |
| 20260504193257 | 80 | 267 | 4.0 | 13.0 | 0.00 | 0.00 | 0.00 | 20 | 1013.5 |
| 20260504192755 | 80 | 277 | 2.0 | 7.0 | 0.00 | 0.00 | 0.00 | 20 | 1013.5 |
| 20260504192255 | 81 | 278 | 2.0 | 7.0 | 0.00 | 0.00 | 0.00 | 19 | 1013.6 |
| 20260504191758 | 81 | 88 | 2.0 | 6.0 | 0.00 | 0.00 | 0.00 | 19 | 1013.6 |
| 20260504191255 | 80 | 210 | 2.0 | 5.0 | 0.00 | 0.00 | 0.00 | 21 | 1013.7 |
| 20260504191014 | 80 | 220 | 2.0 | 5.0 | 0.00 | 0.00 | 0.00 | 21 | 1013.7 |
| 20260504190254 | 80 | 208 | 1.0 | 5.0 | 0.00 | 0.00 | 0.00 | 21 | 1013.7 |
| 20260504185753 | 79 | 253 | 1.0 | 3.0 | 0.00 | 0.00 | 0.00 | 23 | 1013.7 |
| 20260504185254 | 79 | 243 | 2.0 | 5.0 | 0.00 | 0.00 | 0.00 | 23 | 1013.8 |
| 20260504184750 | 79 | 269 | 3.0 | 7.0 | 0.00 | 0.00 | 0.00 | 22 | 1014.0 |
| 20260504184518 | 79 | 281 | 2.0 | 7.0 | 0.00 | 0.00 | 0.00 | 23 | 1014.1 |
| 20260504183743 | 79 | 240 | 1.0 | 4.0 | 0.00 | 0.00 | 0.00 | 22 | 1014.2 |
| 20260504183243 | 78 | 252 | 2.0 | 7.0 | 0.00 | 0.00 | 0.00 | 23 | 1014.2 |
| 20260504182746 | 78 | 281 | 2.0 | 7.0 | 0.00 | 0.00 | 0.00 | 23 | 1014.2 |
| 20260504182244 | 79 | 285 | 2.0 | 7.0 | 0.00 | 0.00 | 0.00 | 23 | 1014.5 |
| 20260504181743 | 78 | 235 | 2.0 | 8.0 | 0.00 | 0.00 | 0.00 | 24 | 1014.5 |
| 20260504181243 | 78 | 112 | 3.0 | 8.0 | 0.00 | 0.00 | 0.00 | 24 | 1014.6 |
| 20260504180743 | 78 | 146 | 3.0 | 8.0 | 0.00 | 0.00 | 0.00 | 24 | 1014.7 |
| 20260504180502 | 77 | 241 | 3.0 | 7.0 | 0.00 | 0.00 | 0.00 | 24 | 1014.6 |
| 20260504175743 | 77 | 231 | 3.0 | 7.0 | 0.00 | 0.00 | 0.00 | 24 | 1014.5 |
| 20260504175243 | 77 | 231 | 4.0 | 10.0 | 0.00 | 0.00 | 0.00 | 24 | 1014.6 |
| 20260504174745 | 77 | 233 | 5.0 | 13.0 | 0.00 | 0.00 | 0.00 | 24 | 1014.6 |
| 20260504174243 | 77 | 249 | 4.0 | 13.0 | 0.00 | 0.00 | 0.00 | 24 | 1014.7 |
| 20260504173743 | 76 | 213 | 4.0 | 9.0 | 0.00 | 0.00 | 0.00 | 25 | 1014.7 |
| 20260504173244 | 76 | 223 | 4.0 | 8.0 | 0.00 | 0.00 | 0.00 | 25 | 1014.6 |
| 20260504173002 | 76 | 271 | 4.0 | 9.0 | 0.00 | 0.00 | 0.00 | 24 | 1014.6 |
| 20260504172242 | 76 | 271 | 4.0 | 12.0 | 0.00 | 0.00 | 0.00 | 25 | 1014.7 |
| 20260504172004 | 76 | 216 | 5.0 | 12.0 | 0.00 | 0.00 | 0.00 | 25 | 1014.6 |
| 20260504171241 | 76 | 271 | 6.0 | 12.0 | 0.00 | 0.00 | 0.00 | 25 | 1014.6 |
| 20260504170741 | 76 | 252 | 7.0 | 16.0 | 0.00 | 0.00 | 0.00 | 25 | 1014.5 |
| 20260504170240 | 76 | 188 | 7.0 | 16.0 | 0.00 | 0.00 | 0.00 | 24 | 1014.6 |
| 20260504160227 | 76 | 197 | 5.0 | 10.0 | 0.00 | 0.00 | 0.00 | 27 | 1014.7 |
| 20260504150225 | 74 | 242 | 3.0 | 7.0 | 0.00 | 0.00 | 0.00 | 31 | 1014.6 |
| 20260504141222 | 72 | 202 | 1.0 | 4.0 | 0.00 | 0.00 | 0.00 | 32 | 1014.2 |
| 20260504140722 | 71 | 260 | 1.0 | 3.0 | 0.00 | 0.00 | 0.00 | 33 | 1014.2 |
| 20260504140221 | 71 | 268 | 1.0 | 5.0 | 0.00 | 0.00 | 0.00 | 33 | 1014.4 |
| 20260504130721 | 65 | 214 | 0.0 | 0.0 | 0.00 | 0.00 | 0.00 | 42 | 1013.7 |
| 20260504130220 | 65 | 214 | 0.0 | 0.0 | 0.00 | 0.00 | 0.00 | 43 | 1013.7 |
| 20260504120140 | 66 | 214 | 0.0 | 0.0 | 0.00 | 0.00 | 0.00 | 39 | 1013.2 |
| 20260504110517 | 65 | 214 | 0.0 | 0.0 | 0.00 | 0.00 | 0.00 | 41 | 1013.2 |
| 20260504100349 | 65 | 214 | 0.0 | 0.0 | 0.00 | 0.00 | 0.00 | 39 | 1013.1 |
| 20260504081616 | 68 | 201 | 0.0 | 1.0 | 0.00 | 0.00 | 0.00 | 34 | 1012.6 |
| 20260504081110 | 68 | 291 | 0.0 | 0.0 | 0.00 | 0.00 | 0.00 | 33 | 1012.8 |
| 20260504080604 | 69 | 291 | 0.0 | 0.0 | 0.00 | 0.00 | 0.00 | 33 | 1013.1 |
| 20260504060122 | 71 | 224 | 0.0 | 0.0 | 0.00 | 0.00 | 0.00 | 29 | 1013.4 |
| 20260504050353 | 74 | 259 | 1.0 | 5.0 | 0.00 | 0.00 | 0.00 | 26 | 1013.5 |
| 20260504045855 | 75 | 220 | 2.0 | 7.0 | 0.00 | 0.00 | 0.00 | 26 | 1013.4 |
| 20260504045354 | 75 | 240 | 3.0 | 10.0 | 0.00 | 0.00 | 0.00 | 25 | 1013.5 |
| 20260504044854 | 75 | 253 | 4.0 | 10.0 | 0.00 | 0.00 | 0.00 | 25 | 1013.6 |
| 20260504044354 | 75 | 247 | 4.0 | 9.0 | 0.00 | 0.00 | 0.00 | 25 | 1013.6 |
| 20260504043850 | 75 | 265 | 4.0 | 10.0 | 0.00 | 0.00 | 0.00 | 24 | 1013.6 |
| 20260504043350 | 75 | 228 | 4.0 | 10.0 | 0.00 | 0.00 | 0.00 | 24 | 1013.5 |
| 20260504042849 | 76 | 252 | 5.0 | 13.0 | 0.00 | 0.00 | 0.00 | 24 | 1013.5 |
| 20260504042350 | 76 | 189 | 5.0 | 13.0 | 0.00 | 0.00 | 0.00 | 24 | 1013.4 |
| 20260504041851 | 75 | 245 | 3.0 | 9.0 | 0.00 | 0.00 | 0.00 | 23 | 1013.4 |
| 20260504041346 | 75 | 207 | 2.0 | 4.0 | 0.00 | 0.00 | 0.00 | 23 | 1013.4 |
| 20260504040847 | 75 | 251 | 2.0 | 4.0 | 0.00 | 0.00 | 0.00 | 22 | 1013.3 |
| 20260504040603 | 76 | 250 | 2.0 | 4.0 | 0.00 | 0.00 | 0.00 | 22 | 1012.9 |
| 20260504040108 | 76 | 280 | 2.0 | 5.0 | 0.00 | 0.00 | 0.00 | 22 | 1012.8 |
| 20260504035433 | 76 | 271 | 3.0 | 5.0 | 0.00 | 0.00 | 0.00 | 22 | 1012.7 |
| 20260504034344 | 77 | 254 | 3.0 | 8.0 | 0.00 | 0.00 | 0.00 | 21 | 1012.5 |
| 20260504033844 | 77 | 220 | 4.0 | 10.0 | 0.00 | 0.00 | 0.00 | 21 | 1012.4 |
| 20260504033611 | 77 | 222 | 4.0 | 10.0 | 0.00 | 0.00 | 0.00 | 21 | 1012.4 |
| 20260504032844 | 77 | 248 | 3.0 | 7.0 | 0.00 | 0.00 | 0.00 | 20 | 1012.3 |
| 20260504032606 | 78 | 257 | 2.0 | 8.0 | 0.00 | 0.00 | 0.00 | 19 | 1012.2 |
| 20260504031845 | 78 | 277 | 2.0 | 8.0 | 0.00 | 0.00 | 0.00 | 19 | 1012.1 |
| 20260504031559 | 78 | 238 | 2.0 | 6.0 | 0.00 | 0.00 | 0.00 | 19 | 1012.0 |
| 20260504030840 | 78 | 242 | 3.0 | 9.0 | 0.00 | 0.00 | 0.00 | 18 | 1011.8 |
| 20260504030340 | 78 | 248 | 3.0 | 9.0 | 0.00 | 0.00 | 0.00 | 18 | 1011.6 |
| 20260504030106 | 79 | 234 | 4.0 | 7.0 | 0.00 | 0.00 | 0.00 | 17 | 1011.5 |
| 20260504025340 | 79 | 245 | 4.0 | 8.0 | 0.00 | 0.00 | 0.00 | 17 | 1011.4 |
| 20260504024839 | 79 | 255 | 5.0 | 11.0 | 0.00 | 0.00 | 0.00 | 17 | 1011.4 |
| 20260504024341 | 80 | 249 | 5.0 | 11.0 | 0.00 | 0.00 | 0.00 | 17 | 1011.2 |
| 20260504023841 | 80 | 210 | 5.0 | 11.0 | 0.00 | 0.00 | 0.00 | 16 | 1011.1 |
| 20260504023340 | 80 | 219 | 7.0 | 12.0 | 0.00 | 0.00 | 0.00 | 16 | 1010.9 |
| 20260504022840 | 81 | 250 | 7.0 | 13.0 | 0.00 | 0.00 | 0.00 | 15 | 1010.7 |
| 20260504022343 | 81 | 248 | 7.0 | 13.0 | 0.00 | 0.00 | 0.00 | 15 | 1010.7 |
| 20260504021843 | 81 | 266 | 6.0 | 13.0 | 0.00 | 0.00 | 0.00 | 14 | 1010.6 |
| 20260504021341 | 82 | 253 | 6.0 | 12.0 | 0.00 | 0.00 | 0.00 | 14 | 1010.7 |
| 20260504020841 | 82 | 266 | 6.0 | 12.0 | 0.00 | 0.00 | 0.00 | 13 | 1010.6 |
| 20260504020340 | 82 | 211 | 6.0 | 12.0 | 0.00 | 0.00 | 0.00 | 13 | 1010.5 |
| 20260504015842 | 82 | 252 | 7.0 | 13.0 | 0.00 | 0.00 | 0.00 | 13 | 1010.1 |
| 20260504015339 | 83 | 207 | 6.0 | 13.0 | 0.00 | 0.00 | 0.00 | 13 | 1010.2 |
| 20260504014840 | 83 | 230 | 6.0 | 12.0 | 0.00 | 0.00 | 0.00 | 13 | 1010.1 |
| 20260504014341 | 83 | 250 | 7.0 | 15.0 | 0.00 | 0.00 | 0.00 | 13 | 1010.2 |
| 20260504013840 | 83 | 282 | 8.0 | 15.0 | 0.00 | 0.00 | 0.00 | 13 | 1010.1 |
| 20260504013339 | 84 | 224 | 8.0 | 15.0 | 0.00 | 0.00 | 0.00 | 13 | 1010.1 |
| 20260504012839 | 84 | 225 | 7.0 | 14.0 | 0.00 | 0.00 | 0.00 | 12 | 1010.0 |
| 20260504012340 | 85 | 252 | 8.0 | 14.0 | 0.00 | 0.00 | 0.00 | 12 | 1010.0 |
| 20260504011839 | 85 | 238 | 8.0 | 17.0 | 0.00 | 0.00 | 0.00 | 12 | 1010.1 |
| 20260504011339 | 85 | 257 | 8.0 | 17.0 | 0.00 | 0.00 | 0.00 | 12 | 1010.2 |
| 20260504010840 | 86 | 258 | 8.0 | 16.0 | 0.00 | 0.00 | 0.00 | 12 | 1010.5 |
| 20260504010339 | 86 | 254 | 9.0 | 16.0 | 0.00 | 0.00 | 0.00 | 12 | 1010.2 |
| 20260504005839 | 86 | 220 | 8.0 | 16.0 | 0.00 | 0.00 | 0.00 | 12 | 1010.3 |
| 20260504005341 | 86 | 248 | 7.0 | 14.0 | 0.00 | 0.00 | 0.00 | 12 | 1010.5 |
| 20260504004839 | 86 | 257 | 8.0 | 15.0 | 0.00 | 0.00 | 0.00 | 12 | 1010.5 |
| 20260504004340 | 86 | 230 | 9.0 | 15.0 | 0.00 | 0.00 | 0.00 | 12 | 1010.5 |
| 20260504003840 | 86 | 290 | 9.0 | 15.0 | 0.00 | 0.00 | 0.00 | 13 | 1010.3 |
| 20260504003328 | 86 | 238 | 9.0 | 16.0 | 0.00 | 0.00 | 0.00 | 12 | 1010.3 |
| 20260504002824 | 86 | 238 | 9.0 | 16.0 | 0.00 | 0.00 | 0.00 | 12 | 1010.2 |
| 20260504002321 | 87 | 226 | 9.0 | 16.0 | 0.00 | 0.00 | 0.00 | 12 | 1010.2 |